Zurück zum Katalog

COSMOS 1275 DEB

AktivPO
NORAD 42226·DEBRIS·🇷🇺 Russia

Gestartet Jun 4, 1981 von Plesetsk Cosmodrome

Loading…

Nächste Überflüge (nächste 24 Stunden)

TLE

AlterndSource: Space-Track

Epoche: Sep 4, 2026, 16:38 UTC

1 42226U 81053US  26247.69316864  .00000414  00000-0  44233-3 0  9995
2 42226  82.9544 146.6671 0111170 326.1485  33.2604 13.69163741638265

Verfolge COSMOS 1275 DEB in Echtzeit mit AllMySat

Download on the App Store